Portada
METAR-TAF:

METAR-TAF

Aeropuertos :

Aeropuerto Santiago Pérez Quiroz

Arauca, Colombia

latitud: 07-04N, longitud: 070-44W, altitud: 128 m

Observación

El informe se hizo hace 1 hora y 3 minutos, a las 17:00 UTC
Viento 3 kt del este-sureste
Temperatura 31°C
Humedad 55%
Presión 1016 hPa
Visibilidad 10 km o más
Cielo nuboso a una altura de 1500 ft

METAR: SKUC 111700Z 11003KT 9999 BKN015 31/21 A3000

Hora: 13:03 (18:03 UTC)


TAF: falta

Observaciones y pronósticos meteorológicos de más de 4000 aeropuertos (mensajes METAR y TAF).

Los puntos amarillos y rojos representan las estaciones disponibles.

Ponga el ratón en el punto deseado para ver el nombre de la estación.

Haga clic para ver las observaciones y los pronósticos meteorológicos.

Para cambiar el mapa : haga clic en los botones verdes con una cruz de color negro para hacer un zoom, en el botón verde con un guión para alejar o en las flechas verdes para mapas adyacentes.


METAR-TAF: